Wind_Speed
39 31 31 40 67 64 59 52 48 44 45 45 44 43 42 41 40 39 39 38 36 35 37 37 36 35 35 35 34 34 33 33 32 32 33 33 32 33 33 34 36 37 37 36
36 25 31 39 53 68 56 53 50 44 43 46 47 43 45 43 42 40 40 40 39 39 40 39 38 38 38 37 36 35 34 34 33 33 33 34 34 34 35 36 37 38 40 39
33 29 28 34 41 48 56 50 49 47 45 44 43 41 42 42 41 41 40 40 40 40 41 42 41 40 38 37 36 35 34 34 34 34 35 35 35 35 36 38 39 40 41 41
33 38 27 34 39 45 49 56 54 52 46 47 44 44 42 42 41 41 40 41 41 42 43 43 42 41 40 39 38 37 37 37 37 37 37 37 38 38 39 39 40 41 42 42
32 29 38 27 37 44 47 52 52 56 56 55 49 48 44 43 43 43 43 42 41 42 42 43 43 42 41 41 41 41 41 40 40 40 40 41 41 41 40 39 40 41 42 44
26 25 28 37 28 38 45 45 51 53 54 58 58 55 50 47 46 46 45 45 45 44 44 44 44 44 44 44 44 44 44 44 44 44 44 44 44 44 44 44 45 46 48 50
27 28 29 30 29 28 35 41 46 51 56 58 58 59 59 54 50 48 48 47 47 46 46 46 44 44 46 46 47 47 47 47 47 47 47 47 47 47 48 50 51 53 55 56
23 28 29 31 32 31 32 39 42 46 54 60 62 61 62 58 60 56 50 49 50 48 48 48 48 51 52 52 51 51 51 51 52 53 54 54 54 54 56 57 59 60 60 59
22 20 24 29 34 35 34 34 32 38 44 51 57 64 63 62 60 61 61 62 60 56 57 58 58 58 57 58 58 59 60 61 62 63 64 63 62 62 62 62 63 61 59 58
24 21 21 25 29 33 34 36 35 35 39 46 51 55 62 64 65 64 63 62 62 63 66 69 70 68 65 66 66 66 65 66 67 67 69 68 67 67 66 63 61 60 58 56
28 23 20 22 26 28 32 34 36 36 38 38 42 47 47 49 51 54 59 62 63 65 65 65 66 65 65 66 68 70 70 68 67 66 67 67 64 62 59 58 56 55 55 55
30 28 29 22 24 24 24 25 29 28 29 34 38 42 37 37 40 42 44 48 51 51 48 49 50 51 52 56 57 60 62 62 62 60 58 56 53 53 53 53 53 52 52 54
28 33 35 32 27 23 26 27 30 31 31 30 37 39 40 36 36 38 37 35 38 40 39 41 45 47 47 47 50 50 51 52 52 52 51 51 51 52 52 52 53 53 54 54
26 28 24 29 33 30 25 25 28 31 31 32 30 33 31 30 33 37 35 37 37 40 40 37 39 41 42 42 43 44 45 46 48 49 51 51 51 51 52 53 53 54 53 53
30 31 32 36 37 36 36 37 37 33 30 33 26 32 30 30 30 31 33 35 37 37 37 38 38 39 41 41 42 43 44 44 44 44 45 47 48 49 50 51 52 52 52 52
28 27 31 33 35 38 41 42 45 44 44 44 42 32 33 37 36 35 36 38 36 33 33 36 36 35 36 37 40 42 43 43 42 43 44 45 46 46 48 49 50 52 54 57
35 37 37 34 37 36 37 33 33 36 37 37 42 41 43 41 43 43 44 44 42 40 40 42 41 39 38 38 39 41 42 43 46 48 50 52 52 53 55 56 56 56 56 55
38 43 43 45 49 52 40 36 37 35 33 34 37 46 41 44 45 44 39 42 41 40 40 42 42 43 43 43 44 44 47 50 51 51 52 52 52 52 52 52 52 53 53 53
30 34 38 44 50 56 52 47 49 51 49 45 43 41 47 53 51 45 45 38 37 36 36 36 39 44 46 47 50 50 50 48 49 49 47 46 45 47 48 49 50 49 49 49
24 31 39 40 46 52 43 45 51 56 63 52 50 54 58 58 58 54 54 55 51 48 48 47 47 46 49 50 47 44 44 45 44 42 41 41 42 43 44 45 45 45 44 44
24 27 30 31 39 46 27 26 32 43 42 43 49 50 50 47 49 50 51 49 51 55 57 54 49 42 41 41 39 40 41 39 37 34 33 35 36 37 39 40 38 37 39 41
28 34 33 38 42 44 32 33 35 36 32 29 31 41 45 44 42 43 49 49 45 39 42 45 45 46 43 40 39 39 38 36 35 34 32 33 35 36 37 37 39 40 43 46
29 28 34 39 39 33 33 34 36 35 34 31 30 28 35 38 43 47 37 38 50 45 40 36 36 38 40 40 40 40 39 37 36 34 36 37 39 40 42 43 44 45 46 47
27 29 36 41 34 33 36 35 33 35 35 30 29 26 32 32 34 38 41 42 40 37 42 42 42 40 40 39 40 43 41 40 39 40 41 42 44 46 49 49 49 51 52 53
26 27 31 37 29 35 35 35 36 36 35 32 35 36 39 40 38 37 34 33 35 38 43 46 45 41 42 43 45 46 42 42 44 43 46 48 49 51 52 53 54 55 55 57
20 25 34 34 23 35 27 30 33 32 31 29 29 27 25 21 28 33 36 35 35 40 34 37 45 49 47 46 45 46 47 47 49 51 52 53 55 53 53 55 56 55 54 54
Wind_Direction
215 203 203 215 214 213 215 217 217 216 221 226 225 222 223 225 225 228 231 232 233 235 236 237 240 242 243 244 245 246 247 250 253 255 257 259 261 264 268 270 273 276 278 281
212 203 211 214 215 209 208 213 216 216 220 225 225 224 220 223 227 227 229 232 233 236 240 241 241 243 244 245 246 248 249 251 253 256 259 264 267 270 273 276 276 278 280 282
231 217 222 212 219 221 210 208 214 216 217 222 228 226 225 224 226 230 230 229 231 233 237 240 240 241 243 245 246 249 252 256 258 261 264 267 271 273 275 276 278 279 280 281
231 236 222 217 214 221 224 219 218 217 215 221 224 227 224 227 228 232 232 232 231 231 234 238 240 241 243 246 249 251 253 256 259 262 265 268 269 271 272 274 276 277 279 281
225 230 236 220 218 218 221 226 222 222 220 217 222 230 222 229 231 231 234 237 235 236 236 239 242 245 246 248 250 253 256 258 260 263 265 268 270 271 272 273 274 277 280 282
218 220 231 241 235 226 222 225 233 231 228 230 227 230 228 228 233 235 235 236 238 239 241 241 243 246 247 249 251 253 255 258 261 263 265 267 269 271 273 273 274 277 280 284
228 222 220 225 235 240 231 226 233 236 236 237 235 234 238 232 232 235 240 242 243 243 242 247 249 250 252 253 254 257 258 260 261 263 266 268 269 271 273 274 276 278 281 283
227 229 224 223 228 235 236 235 233 239 239 239 240 241 243 241 241 238 239 242 244 245 246 247 246 248 254 257 260 261 262 264 265 267 269 270 273 275 278 279 279 280 282 282
231 235 234 235 233 230 231 238 240 243 242 242 244 246 246 249 246 248 247 245 244 246 250 254 256 259 260 261 263 265 266 269 271 273 274 274 275 277 279 279 279 280 279 277
230 230 234 238 240 240 232 233 237 245 247 246 243 242 244 247 250 248 250 252 253 253 253 254 256 258 261 264 266 268 268 268 271 272 273 273 274 275 278 279 277 277 277 277
239 238 235 238 240 240 243 243 240 244 247 250 249 247 247 250 253 252 251 252 254 255 256 257 259 261 261 262 263 263 265 267 268 268 269 271 272 273 273 273 273 274 274 275
232 237 234 238 236 240 240 244 241 240 245 247 250 244 252 253 254 256 251 250 249 250 249 251 252 251 251 254 256 257 258 260 262 262 264 266 266 267 269 270 271 272 273 274
230 237 238 241 249 248 245 249 247 250 251 245 248 242 246 252 255 253 249 239 235 235 235 238 241 245 248 249 251 253 255 256 258 260 262 263 264 266 267 268 270 273 274 275
232 239 235 242 248 245 247 249 252 249 252 255 251 243 247 252 252 252 250 243 230 227 226 229 236 241 246 251 254 256 257 257 258 259 260 264 267 270 272 273 273 274 275 276
246 248 249 244 244 250 254 259 263 262 260 259 251 250 251 251 246 247 248 247 243 237 235 238 240 241 242 245 248 252 253 255 257 262 266 268 268 269 271 272 273 274 275 277
238 242 249 247 251 252 254 254 259 262 265 264 264 244 257 255 249 248 252 255 255 250 248 250 253 255 256 257 257 255 256 258 261 265 266 267 269 270 271 272 274 275 277 280
239 238 240 239 240 232 236 235 244 247 249 254 252 248 256 259 258 256 257 260 266 264 263 264 267 269 270 269 270 270 268 268 268 268 270 271 272 273 274 275 277 278 279 280
245 245 246 246 245 246 243 243 245 247 244 243 250 260 255 258 257 259 261 262 262 261 261 261 262 264 263 264 268 269 266 266 268 270 271 273 274 275 277 278 280 281 282 283
256 254 257 256 253 255 258 263 262 257 249 254 254 243 257 267 264 259 257 254 254 251 253 260 265 265 267 267 265 263 265 270 271 273 274 275 276 278 279 281 283 283 284 285
260 257 257 263 264 262 266 267 267 268 265 263 271 268 268 270 270 266 269 264 259 256 260 266 271 270 268 268 268 268 266 266 268 269 270 272 275 277 278 279 279 280 280 279
256 263 266 267 269 269 273 266 266 268 277 261 255 259 264 266 267 267 267 268 267 263 262 266 262 258 258 258 257 257 258 260 260 259 262 270 277 280 279 279 279 279 281 281
254 255 259 263 266 275 279 272 272 275 277 283 276 263 261 263 264 269 263 263 265 262 262 259 256 256 254 253 250 250 253 252 257 264 271 279 282 280 274 272 276 279 281 282
265 266 267 268 274 279 282 278 271 270 267 272 278 283 274 268 265 265 265 262 263 256 258 260 256 252 248 248 249 249 248 254 260 267 275 276 275 273 273 275 277 279 281 283
271 272 273 272 279 277 275 276 268 260 262 267 272 275 282 275 271 260 259 262 256 260 258 262 257 260 251 246 247 248 253 259 262 268 270 273 276 276 275 276 278 280 282 285
282 279 282 274 276 267 258 265 264 262 267 273 276 278 279 275 266 268 267 263 258 254 254 252 256 266 265 255 250 253 261 265 268 270 273 273 274 278 279 278 280 281 283 286
286 283 276 275 262 260 260 261 269 273 274 273 282 290 287 282 281 266 262 259 259 260 269 269 257 260 259 258 257 258 263 267 270 272 273 275 277 278 280 283 286 287 288 288
Height
5691 5701 5707 5715 5720 5728 5737 5744 5750 5756 5764 5769 5775 5781 5785 5790 5795 5799 5802 5806 5810 5812 5813 5815 5818 5821 5823 5825 5826 5828 5830 5830 5831 5831 5832 5832 5832 5832 5832 5831 5830 5828 5828 5827
5689 5695 5699 5708 5714 5718 5725 5734 5742 5748 5754 5759 5764 5772 5776 5781 5787 5791 5795 5798 5802 5805 5806 5809 5811 5814 5815 5817 5819 5821 5822 5823 5824 5824 5825 5825 5825 5826 5825 5824 5822 5820 5819 5819
5683 5689 5697 5703 5710 5716 5719 5726 5732 5739 5745 5750 5757 5763 5769 5774 5780 5784 5788 5791 5794 5796 5799 5801 5803 5806 5808 5811 5812 5814 5815 5815 5816 5817 5817 5817 5818 5818 5817 5815 5814 5813 5812 5810
5679 5685 5691 5697 5703 5709 5715 5718 5724 5730 5737 5742 5748 5755 5761 5766 5772 5777 5780 5783 5786 5788 5790 5793 5796 5798 5801 5803 5805 5806 5807 5808 5809 5809 5810 5810 5810 5810 5808 5808 5806 5805 5804 5802
5677 5682 5687 5690 5695 5701 5708 5713 5718 5723 5728 5732 5739 5743 5754 5758 5763 5769 5773 5776 5779 5782 5784 5785 5787 5790 5792 5794 5796 5798 5799 5800 5800 5800 5801 5801 5800 5800 5799 5798 5797 5795 5794 5792
5672 5676 5680 5686 5691 5695 5701 5707 5713 5717 5721 5725 5730 5734 5744 5750 5755 5758 5762 5766 5769 5772 5775 5777 5779 5781 5784 5785 5787 5788 5789 5790 5791 5791 5791 5791 5790 5790 5790 5789 5788 5785 5783 5781
5668 5672 5675 5680 5684 5690 5695 5701 5705 5709 5711 5719 5721 5727 5733 5741 5744 5749 5753 5755 5758 5762 5766 5769 5770 5771 5773 5775 5777 5778 5779 5779 5780 5780 5781 5780 5780 5779 5779 5778 5777 5775 5773 5771
5663 5668 5670 5674 5678 5684 5687 5693 5698 5699 5703 5707 5710 5717 5722 5731 5734 5738 5741 5744 5746 5750 5754 5757 5759 5761 5763 5764 5765 5766 5767 5767 5768 5768 5768 5768 5768 5766 5765 5765 5764 5762 5760 5758
5660 5663 5666 5670 5673 5675 5682 5688 5688 5688 5692 5694 5702 5711 5716 5718 5723 5723 5727 5731 5736 5739 5741 5743 5745 5748 5750 5752 5752 5753 5753 5754 5753 5754 5754 5754 5753 5753 5752 5750 5749 5747 5745 5743
5658 5661 5662 5665 5667 5670 5674 5678 5681 5681 5684 5687 5693 5697 5702 5707 5706 5712 5713 5716 5719 5724 5726 5729 5731 5733 5735 5736 5737 5738 5738 5738 5738 5739 5739 5739 5738 5737 5736 5734 5733 5732 5731 5729
5654 5656 5659 5661 5662 5664 5666 5668 5671 5675 5678 5682 5685 5691 5695 5697 5697 5699 5699 5700 5703 5707 5711 5714 5716 5718 5720 5721 5722 5722 5723 5723 5723 5723 5722 5722 5722 5721 5720 5719 5718 5717 5716 5715
5647 5650 5653 5655 5656 5658 5660 5662 5665 5668 5673 5673 5678 5687 5688 5687 5687 5685 5684 5687 5691 5694 5696 5698 5700 5702 5703 5705 5707 5707 5707 5707 5707 5708 5708 5708 5708 5707 5706 5707 5706 5705 5704 5702
5641 5643 5646 5649 5652 5653 5655 5658 5659 5662 5662 5668 5668 5680 5678 5678 5676 5676 5674 5676 5679 5681 5682 5684 5686 5688 5690 5692 5693 5693 5693 5694 5694 5695 5694 5694 5693 5693 5694 5694 5693 5692 5690 5689
5635 5638 5642 5643 5646 5648 5650 5651 5653 5654 5658 5660 5665 5668 5669 5668 5666 5666 5668 5668 5669 5671 5672 5674 5676 5678 5679 5681 5681 5682 5682 5682 5682 5682 5682 5683 5683 5683 5682 5681 5680 5679 5677 5676
5630 5631 5633 5635 5638 5640 5643 5645 5647 5649 5650 5651 5661 5657 5662 5658 5657 5658 5659 5660 5660 5661 5663 5666 5667 5667 5668 5669 5670 5671 5672 5672 5672 5673 5673 5673 5672 5672 5671 5669 5668 5666 5665 5663
5622 5626 5626 5627 5628 5631 5634 5637 5638 5641 5640 5644 5645 5651 5648 5646 5647 5648 5646 5646 5649 5655 5658 5657 5657 5658 5659 5660 5660 5661 5661 5661 5662 5661 5660 5660 5658 5658 5657 5656 5655 5653 5652 5650
5616 5617 5618 5620 5621 5620 5623 5626 5626 5628 5629 5630 5630 5643 5636 5637 5634 5634 5636 5638 5642 5645 5645 5644 5647 5649 5650 5650 5650 5651 5651 5650 5649 5648 5648 5648 5647 5646 5645 5644 5642 5640 5638 5637
5608 5609 5609 5611 5611 5610 5619 5620 5620 5619 5620 5621 5623 5631 5626 5620 5617 5626 5627 5627 5629 5632 5633 5634 5635 5636 5637 5638 5639 5640 5639 5638 5637 5636 5636 5635 5634 5633 5632 5630 5629 5627 5625 5623
5600 5599 5598 5597 5600 5599 5604 5611 5610 5607 5611 5613 5612 5614 5607 5604 5608 5615 5611 5616 5619 5619 5620 5621 5623 5623 5625 5626 5627 5627 5627 5626 5625 5625 5624 5623 5622 5621 5620 5618 5617 5614 5612 5610
5589 5590 5588 5589 5587 5584 5596 5598 5597 5592 5588 5600 5597 5595 5593 5592 5595 5602 5600 5602 5604 5605 5608 5610 5611 5612 5612 5613 5613 5614 5614 5613 5613 5613 5612 5611 5610 5609 5607 5605 5603 5601 5599 5597
5582 5580 5579 5580 5574 5570 5589 5585 5580 5579 5584 5578 5578 5580 5580 5581 5581 5587 5587 5589 5588 5591 5593 5595 5596 5597 5598 5598 5599 5600 5600 5600 5601 5601 5600 5600 5599 5597 5596 5594 5592 5590 5588 5586
5575 5572 5573 5571 5567 5565 5576 5575 5572 5570 5569 5568 5567 5568 5567 5568 5570 5571 5574 5575 5576 5577 5578 5581 5582 5583 5584 5585 5586 5587 5588 5589 5589 5589 5588 5587 5586 5585 5584 5582 5580 5579 5577 5574
5565 5567 5563 5561 5561 5565 5563 5561 5561 5560 5560 5559 5558 5557 5555 5556 5557 5557 5561 5560 5562 5565 5566 5568 5570 5571 5572 5573 5574 5575 5576 5577 5577 5577 5577 5576 5574 5573 5571 5570 5568 5566 5564 5561
5559 5558 5554 5549 5556 5555 5551 5551 5550 5548 5549 5551 5550 5550 5548 5547 5546 5545 5547 5547 5549 5551 5554 5555 5557 5559 5561 5561 5562 5563 5564 5565 5565 5565 5564 5563 5562 5560 5558 5556 5555 5552 5550 5547
5551 5549 5545 5539 5545 5540 5539 5540 5539 5539 5541 5543 5541 5540 5538 5536 5536 5535 5535 5535 5536 5537 5539 5541 5544 5545 5548 5550 5550 5551 5551 5552 5553 5552 5551 5550 5548 5546 5544 5542 5540 5538 5534 5531
5542 5539 5532 5530 5533 5526 5532 5531 5531 5532 5533 5532 5531 5529 5527 5525 5524 5524 5524 5525 5526 5526 5528 5529 5532 5534 5535 5536 5537 5538 5539 5539 5539 5538 5537 5536 5535 5533 5531 5529 5527 5523 5519 5516